TimeCDT,TemperatureF,Dew PointF,Humidity,Sea Level PressureIn,VisibilityMPH,Wind Direction,Wind SpeedMPH,Gust SpeedMPH,PrecipitationIn,Events,Conditions,WindDirDegrees,DateUTC
12:15 AM,51.8,46.4,82,30.12,10.0,SSE,3.5,-,N/A,,Clear,160,2013-10-09 05:15:00
12:35 AM,51.8,46.4,82,30.11,10.0,SSE,3.5,-,N/A,,Clear,160,2013-10-09 05:35:00
12:55 AM,48.2,44.6,87,30.12,10.0,Calm,Calm,-,N/A,,Clear,0,2013-10-09 05:55:00
1:15 AM,48.2,44.6,87,30.11,10.0,Calm,Calm,-,N/A,,Clear,0,2013-10-09 06:15:00
1:35 AM,48.2,44.6,87,30.12,10.0,Calm,Calm,-,N/A,,Clear,0,2013-10-09 06:35:00
1:55 AM,48.2,44.6,87,30.11,10.0,ESE,3.5,-,N/A,,Clear,120,2013-10-09 06:55:00
2:15 AM,48.2,44.6,87,30.12,10.0,Calm,Calm,-,N/A,,Clear,0,2013-10-09 07:15:00
2:35 AM,46.4,42.8,87,30.12,10.0,Calm,Calm,-,N/A,,Clear,0,2013-10-09 07:35:00
2:55 AM,46.4,42.8,87,30.12,10.0,Calm,Calm,-,N/A,,Clear,0,2013-10-09 07:55:00
3:15 AM,46.4,42.8,87,30.12,10.0,Calm,Calm,-,N/A,,Clear,0,2013-10-09 08:15:00
3:35 AM,46.4,42.8,87,30.13,10.0,Calm,Calm,-,N/A,,Clear,0,2013-10-09 08:35:00
3:55 AM,44.6,42.8,93,30.13,10.0,Calm,Calm,-,N/A,,Clear,0,2013-10-09 08:55:00
4:15 AM,44.6,41.0,87,30.13,10.0,Calm,Calm,-,N/A,,Clear,0,2013-10-09 09:15:00
4:35 AM,44.6,41.0,87,30.13,10.0,Calm,Calm,-,N/A,,Clear,0,2013-10-09 09:35:00
4:55 AM,44.6,42.8,93,30.13,10.0,Calm,Calm,-,N/A,,Clear,0,2013-10-09 09:55:00
5:15 AM,44.6,41.0,87,30.13,10.0,Calm,Calm,-,N/A,,Clear,0,2013-10-09 10:15:00
5:35 AM,44.6,41.0,87,30.13,10.0,Calm,Calm,-,N/A,,Clear,0,2013-10-09 10:35:00
5:55 AM,44.6,41.0,87,30.13,10.0,Calm,Calm,-,N/A,,Clear,0,2013-10-09 10:55:00
6:15 AM,44.6,41.0,87,30.14,10.0,Calm,Calm,-,N/A,,Clear,0,2013-10-09 11:15:00
6:35 AM,42.8,39.2,87,30.14,10.0,East,3.5,-,N/A,,Clear,100,2013-10-09 11:35:00
6:55 AM,42.8,39.2,87,30.14,10.0,Calm,Calm,-,N/A,,Clear,0,2013-10-09 11:55:00
7:15 AM,44.6,39.2,81,30.14,10.0,Calm,Calm,-,N/A,,Clear,0,2013-10-09 12:15:00
7:35 AM,42.8,39.2,87,30.14,10.0,Calm,Calm,-,N/A,,Clear,0,2013-10-09 12:35:00
7:55 AM,44.6,41.0,87,30.15,10.0,Calm,Calm,-,N/A,,Clear,0,2013-10-09 12:55:00
8:15 AM,44.6,42.8,93,30.16,10.0,ESE,3.5,-,N/A,,Clear,110,2013-10-09 13:15:00
8:35 AM,46.4,44.6,93,30.16,10.0,SSE,4.6,-,N/A,,Clear,160,2013-10-09 13:35:00
8:55 AM,48.2,44.6,87,30.16,10.0,Calm,Calm,-,N/A,,Clear,0,2013-10-09 13:55:00
9:15 AM,51.8,46.4,82,30.17,10.0,SE,3.5,-,N/A,,Clear,140,2013-10-09 14:15:00
9:35 AM,53.6,46.4,77,30.17,10.0,SSE,3.5,-,N/A,,Clear,150,2013-10-09 14:35:00
9:55 AM,55.4,48.2,77,30.17,10.0,SE,3.5,-,N/A,,Clear,130,2013-10-09 14:55:00
10:15 AM,59.0,48.2,67,30.18,10.0,South,4.6,-,N/A,,Clear,170,2013-10-09 15:15:00
10:35 AM,60.8,48.2,63,30.18,10.0,SE,4.6,-,N/A,,Clear,140,2013-10-09 15:35:00
10:55 AM,62.6,48.2,59,30.18,10.0,South,5.8,-,N/A,,Clear,190,2013-10-09 15:55:00
11:15 AM,64.4,48.2,56,30.18,10.0,SW,6.9,-,N/A,,Clear,220,2013-10-09 16:15:00
11:35 AM,66.2,46.4,49,30.17,10.0,SSW,8.1,-,N/A,,Clear,200,2013-10-09 16:35:00
11:55 AM,66.2,48.2,52,30.17,10.0,SSW,6.9,-,N/A,,Clear,210,2013-10-09 16:55:00
12:15 PM,68.0,48.2,49,30.16,10.0,SSE,3.5,-,N/A,,Clear,150,2013-10-09 17:15:00
12:35 PM,68.0,46.4,46,30.15,10.0,SSW,3.5,-,N/A,,Clear,200,2013-10-09 17:35:00
12:55 PM,69.8,46.4,43,30.14,10.0,South,5.8,-,N/A,,Clear,180,2013-10-09 17:55:00
1:15 PM,69.8,48.2,46,30.14,10.0,SSE,6.9,-,N/A,,Clear,160,2013-10-09 18:15:00
1:35 PM,69.8,46.4,43,30.13,10.0,SE,5.8,-,N/A,,Clear,130,2013-10-09 18:35:00
1:55 PM,71.6,48.2,43,30.12,10.0,South,8.1,-,N/A,,Clear,170,2013-10-09 18:55:00
2:15 PM,71.6,46.4,41,30.11,10.0,SE,9.2,-,N/A,,Clear,140,2013-10-09 19:15:00
2:35 PM,71.6,46.4,41,30.10,10.0,East,4.6,-,N/A,,Clear,100,2013-10-09 19:35:00
2:55 PM,71.6,48.2,43,30.10,10.0,SSE,5.8,-,N/A,,Clear,160,2013-10-09 19:55:00
3:15 PM,71.6,48.2,43,30.10,10.0,Calm,Calm,-,N/A,,Clear,0,2013-10-09 20:15:00
3:35 PM,71.6,48.2,43,30.09,10.0,SE,5.8,-,N/A,,Clear,130,2013-10-09 20:35:00
3:55 PM,73.4,48.2,41,30.09,9.0,ESE,8.1,-,N/A,,Clear,110,2013-10-09 20:55:00
4:15 PM,73.4,46.4,38,30.09,10.0,SSE,6.9,-,N/A,,Clear,160,2013-10-09 21:15:00
4:35 PM,73.4,48.2,41,30.09,10.0,South,5.8,-,N/A,,Clear,170,2013-10-09 21:35:00
4:55 PM,73.4,48.2,41,30.09,10.0,SSE,6.9,-,N/A,,Clear,160,2013-10-09 21:55:00
5:15 PM,71.6,48.2,43,30.08,10.0,SE,5.8,-,N/A,,Clear,130,2013-10-09 22:15:00
5:35 PM,71.6,48.2,43,30.08,10.0,SE,4.6,-,N/A,,Clear,130,2013-10-09 22:35:00
5:55 PM,69.8,48.2,46,30.08,10.0,Calm,Calm,-,N/A,,Clear,0,2013-10-09 22:55:00
6:15 PM,69.8,48.2,46,30.08,10.0,Calm,Calm,-,N/A,,Clear,0,2013-10-09 23:15:00
6:35 PM,68.0,48.2,49,30.08,10.0,ESE,3.5,-,N/A,,Clear,110,2013-10-09 23:35:00
6:55 PM,60.8,51.8,72,30.09,10.0,East,3.5,-,N/A,,Clear,90,2013-10-09 23:55:00
7:15 PM,60.8,50.0,68,30.09,10.0,East,3.5,-,N/A,,Clear,90,2013-10-10 00:15:00
7:35 PM,57.2,50.0,77,30.09,10.0,East,3.5,-,N/A,,Clear,90,2013-10-10 00:35:00
7:55 PM,57.2,50.0,77,30.09,10.0,East,3.5,-,N/A,,Clear,100,2013-10-10 00:55:00
8:15 PM,57.2,50.0,77,30.09,10.0,East,4.6,-,N/A,,Clear,100,2013-10-10 01:15:00
8:35 PM,57.2,48.2,72,30.09,10.0,ESE,4.6,-,N/A,,Clear,110,2013-10-10 01:35:00
8:55 PM,60.8,50.0,68,30.09,10.0,ESE,4.6,-,N/A,,Clear,110,2013-10-10 01:55:00
9:15 PM,57.2,48.2,72,30.10,10.0,SSE,3.5,-,N/A,,Clear,150,2013-10-10 02:15:00
9:35 PM,55.4,50.0,82,30.10,10.0,SSE,3.5,-,N/A,,Clear,160,2013-10-10 02:35:00
9:55 PM,55.4,48.2,77,30.11,10.0,SE,3.5,-,N/A,,Clear,140,2013-10-10 02:55:00
10:15 PM,53.6,48.2,82,30.11,10.0,SE,3.5,-,N/A,,Clear,130,2013-10-10 03:15:00
10:35 PM,55.4,50.0,82,30.11,10.0,SE,3.5,-,N/A,,Clear,140,2013-10-10 03:35:00
10:55 PM,53.6,48.2,82,30.10,10.0,SE,3.5,-,N/A,,Clear,130,2013-10-10 03:55:00
11:15 PM,53.6,48.2,82,30.10,10.0,Calm,Calm,-,N/A,,Clear,0,2013-10-10 04:15:00
11:35 PM,51.8,48.2,88,30.11,10.0,Calm,Calm,-,N/A,,Clear,0,2013-10-10 04:35:00
11:55 PM,51.8,48.2,88,30.11,10.0,Calm,Calm,-,N/A,,Clear,0,2013-10-10 04:55:00